| time (UTC) | temp F | wind direction | speed knots | gust knots | rain 1hr in | rain 24hr in | rain mn in | humidity % | barometer mb |
| 20260506102551 | 68 | 209 | 1.7 | 6.1 | 0.00 | 0.34 | 0.01 | 1005.7 | |
| 20260506101547 | 67 | 226 | 1.7 | 6.1 | 0.00 | 0.34 | 0.01 | 1005.8 | |
| 20260506100544 | 65 | 180 | 1.7 | 3.5 | 0.00 | 0.34 | 0.01 | 1005.7 | |
| 20260506095540 | 66 | 216 | 1.7 | 4.3 | 0.00 | 0.34 | 0.01 | 1005.8 | |
| 20260506094537 | 67 | 219 | 1.7 | 5.2 | 0.00 | 0.34 | 0.01 | 1005.9 | |
| 20260506093533 | 67 | 182 | 1.7 | 5.2 | 0.00 | 0.34 | 0.01 | 1005.9 | |
| 20260506092559 | 66 | 163 | 2.6 | 7.0 | 0.00 | 0.34 | 0.01 | 1006.0 | |
| 20260506091556 | 65 | 220 | 1.7 | 6.1 | 0.00 | 0.34 | 0.01 | 1005.8 | |
| 20260506090552 | 64 | 0 | 1.7 | 3.5 | 0.00 | 0.34 | 0.01 | 1006.0 | |
| 20260506085548 | 64 | 210 | 1.7 | 5.2 | 0.00 | 0.34 | 0.01 | 1006.0 | |
| 20260506084544 | 63 | 238 | 1.7 | 5.2 | 0.00 | 0.34 | 0.01 | 1005.9 | |
| 20260506083540 | 61 | 193 | 0.9 | 7.0 | 0.00 | 0.34 | 0.01 | 1005.6 | |
| 20260506082536 | 63 | 250 | 1.7 | 7.8 | 0.00 | 0.34 | 0.01 | 1005.6 | |
| 20260506081533 | 62 | 205 | 0.9 | 3.5 | 0.00 | 0.34 | 0.01 | 1005.6 | |
| 20260506080529 | 61 | 225 | 1.7 | 3.5 | 0.00 | 0.34 | 0.01 | 1005.6 | |
| 20260506073517 | 61 | 239 | 0.9 | 3.5 | 0.00 | 0.34 | 0.01 | 1005.4 | |
| 20260506072614 | 60 | 224 | 0.0 | 3.5 | 0.00 | 0.34 | 0.01 | 1005.5 | |
| 20260506071611 | 61 | 158 | 2.6 | 6.1 | 0.00 | 0.34 | 0.01 | 1005.5 | |
| 20260506070607 | 59 | 135 | 1.7 | 4.3 | 0.00 | 0.34 | 0.01 | 38 | 1005.5 |
| 20260506061548 | 55 | 139 | 0.9 | 4.3 | 0.00 | 0.34 | 0.01 | 74 | 1005.7 |
| 20260506060545 | 55 | 180 | 2.6 | 5.2 | 0.00 | 0.34 | 0.01 | 80 | 1005.8 |
| 20260506050553 | 54 | 184 | 0.9 | 3.5 | 0.00 | 0.34 | 0.01 | 84 | 1005.9 |
| 20260506044545 | 54 | 195 | 0.0 | 2.6 | 0.00 | 0.34 | 0.01 | 84 | 1005.8 |
| 20260506043542 | 54 | 0.0 | 0.9 | 0.00 | 0.34 | 0.01 | 84 | 1005.8 | |
| 20260506042538 | 54 | 0.0 | 0.0 | 0.00 | 0.34 | 0.01 | 86 | 1005.6 | |
| 20260506041534 | 54 | 0.0 | 0.9 | 0.00 | 0.34 | 0.01 | 84 | 1005.7 | |
| 20260506040600 | 54 | 215 | 0.9 | 4.3 | 0.00 | 0.34 | 0.01 | 85 | 1005.5 |
| 20260506035556 | 54 | 166 | 0.9 | 4.3 | 0.00 | 0.34 | 0.01 | 87 | 1005.6 |
| 20260506034553 | 55 | 0.0 | 1.7 | 0.00 | 0.34 | 0.01 | 88 | 1005.5 | |
| 20260506033548 | 55 | 0.0 | 1.7 | 0.00 | 0.34 | 0.01 | 85 | 1005.4 | |
| 20260506032544 | 55 | 0.0 | 2.6 | 0.00 | 0.35 | 0.01 | 85 | 1005.5 | |
| 20260506031541 | 55 | 0.0 | 1.7 | 0.00 | 0.35 | 0.01 | 84 | 1005.5 | |
| 20260506030538 | 54 | 225 | 0.0 | 3.5 | 0.00 | 0.35 | 0.01 | 82 | 1005.5 |
| 20260506025538 | 55 | 225 | 0.9 | 3.5 | 0.00 | 0.35 | 0.01 | 81 | 1005.6 |
| 20260506024600 | 55 | 0.0 | 2.6 | 0.01 | 0.35 | 0.01 | 83 | 1005.6 | |
| 20260506023556 | 55 | 0.0 | 0.0 | 0.01 | 0.35 | 0.01 | 81 | 1005.6 | |
| 20260506022552 | 55 | 0.0 | 0.0 | 0.01 | 0.35 | 0.01 | 81 | 1005.6 | |
| 20260506021548 | 55 | 0.0 | 0.0 | 0.01 | 0.35 | 0.01 | 80 | 1005.6 | |
| 20260506020545 | 55 | 0.0 | 0.0 | 0.01 | 0.35 | 0.01 | 80 | 1005.6 | |
| 20260506015541 | 55 | 0.0 | 0.0 | 0.01 | 0.35 | 0.01 | 79 | 1005.6 | |
| 20260506014537 | 55 | 0.0 | 0.0 | 0.00 | 0.34 | 0.00 | 77 | 1005.6 | |
| 20260506013533 | 55 | 0.0 | 0.0 | 0.00 | 0.35 | 0.00 | 76 | 1005.8 | |
| 20260506012600 | 55 | 0.0 | 0.0 | 0.00 | 0.35 | 0.00 | 74 | 1005.9 | |
| 20260506011556 | 55 | 180 | 0.0 | 2.6 | 0.00 | 0.35 | 0.00 | 73 | 1005.8 |
| 20260506010552 | 55 | 0.0 | 0.0 | 0.00 | 0.35 | 0.00 | 70 | 1005.9 | |
| 20260506005549 | 55 | 180 | 0.9 | 3.5 | 0.00 | 0.35 | 0.00 | 69 | 1006.0 |
| 20260506004545 | 55 | 0.0 | 0.0 | 0.00 | 0.35 | 0.00 | 67 | 1006.1 | |
| 20260506003542 | 55 | 0.0 | 0.0 | 0.00 | 0.35 | 0.00 | 66 | 1006.1 | |
| 20260506002537 | 55 | 0.0 | 0.9 | 0.00 | 0.35 | 0.00 | 64 | 1006.3 | |
| 20260506001533 | 55 | 0.0 | 0.0 | 0.00 | 0.35 | 0.00 | 63 | 1006.2 | |
| 20260506000600 | 55 | 0.0 | 0.0 | 0.00 | 0.35 | 0.00 | 61 | 1006.4 | |
| 20260505235556 | 55 | 0.0 | 0.0 | 0.00 | 0.35 | 0.00 | 59 | 1006.4 | |
| 20260505234552 | 55 | 0.0 | 0.0 | 0.00 | 0.35 | 0.00 | 56 | 1006.4 | |
| 20260505233549 | 55 | 0.0 | 0.0 | 0.00 | 0.35 | 0.00 | 54 | 1006.5 | |
| 20260505232544 | 55 | 180 | 0.0 | 2.6 | 0.00 | 0.35 | 0.00 | 49 | 1006.5 |
| 20260505231540 | 55 | 180 | 0.0 | 1.7 | 0.00 | 0.35 | 0.00 | 45 | 1006.4 |
| 20260505230537 | 55 | 180 | 1.7 | 3.5 | 0.00 | 0.35 | 0.00 | 40 | 1006.4 |
| 20260505225533 | 55 | 187 | 0.9 | 2.6 | 0.00 | 0.35 | 0.00 | 34 | 1006.4 |
| 20260505224529 | 55 | 0.0 | 1.7 | 0.00 | 0.35 | 0.00 | 28 | 1006.3 | |
| 20260505223526 | 55 | 0.0 | 0.9 | 0.01 | 0.35 | 0.00 | 25 | 1006.3 | |
| 20260505222522 | 55 | 0.0 | 0.0 | 0.01 | 0.35 | 0.00 | 25 | 1006.3 | |
| 20260505221519 | 55 | 0.0 | 0.0 | 0.01 | 0.35 | 0.00 | 25 | 1006.3 | |
| 20260505220615 | 55 | 0.0 | 0.0 | 0.01 | 0.35 | 0.00 | 24 | 1006.3 | |
| 20260505215611 | 55 | 0.0 | 0.0 | 0.01 | 0.35 | 0.35 | 24 | 1006.3 | |
| 20260505214607 | 55 | 0.0 | 0.9 | 0.01 | 0.35 | 0.35 | 21 | 1006.4 | |
| 20260505213604 | 55 | 0.0 | 0.0 | 0.00 | 0.34 | 0.34 | 15 | 1006.6 | |
| 20260505212600 | 55 | 0.0 | 0.0 | 0.00 | 0.34 | 0.34 | 11 | 1006.7 | |
| 20260505211556 | 55 | 0.0 | 0.0 | 0.00 | 0.34 | 0.34 | 1006.7 | ||
| 20260505210551 | 55 | 0.0 | 0.0 | 0.00 | 0.34 | 0.34 | 1006.7 | ||
| 20260505205548 | 55 | 0.0 | 0.0 | 0.00 | 0.34 | 0.34 | 1006.5 | ||
| 20260505204544 | 55 | 0.0 | 0.0 | 0.01 | 0.34 | 0.34 | 1006.4 | ||
| 20260505203542 | 56 | 0.0 | 0.0 | 0.01 | 0.34 | 0.34 | 1006.3 | ||
| 20260505202537 | 56 | 0.0 | 0.0 | 0.01 | 0.34 | 0.34 | 1006.3 | ||
| 20260505201532 | 56 | 0.0 | 0.0 | 0.01 | 0.34 | 0.34 | 1006.3 | ||
| 20260505200529 | 56 | 0.0 | 0.0 | 0.01 | 0.34 | 0.34 | 1006.4 | ||
| 20260505195525 | 56 | 0.0 | 0.0 | 0.01 | 0.34 | 0.34 | 1006.4 | ||
| 20260505194521 | 56 | 0.0 | 0.0 | 0.00 | 0.33 | 0.33 | 1006.4 | ||
| 20260505193518 | 56 | 0.0 | 0.0 | 0.00 | 0.33 | 0.33 | 1006.4 | ||
| 20260505192614 | 56 | 0.0 | 0.0 | 0.00 | 0.33 | 0.33 | 1006.4 | ||
| 20260505191610 | 56 | 0.0 | 0.0 | 0.01 | 0.33 | 0.33 | 1006.4 | ||
| 20260505190606 | 56 | 0.0 | 0.0 | 0.01 | 0.33 | 0.33 | 1006.3 | ||
| 20260505185602 | 56 | 0.0 | 0.0 | 0.01 | 0.33 | 0.33 | 1006.3 | ||
| 20260505184559 | 56 | 0.0 | 0.0 | 0.01 | 0.33 | 0.33 | 1006.3 | ||
| 20260505183555 | 56 | 0.0 | 0.9 | 0.02 | 0.33 | 0.33 | 1006.2 | ||
| 20260505182551 | 56 | 0.0 | 1.7 | 0.04 | 0.33 | 0.33 | 1006.0 | ||
| 20260505181547 | 56 | 0.0 | 0.0 | 0.05 | 0.32 | 0.32 | 1006.0 | ||
| 20260505180544 | 56 | 0.0 | 0.0 | 0.13 | 0.32 | 0.32 | 1006.0 | ||
| 20260505175540 | 56 | 0.0 | 0.0 | 0.18 | 0.32 | 0.32 | 1005.8 | ||
| 20260505174537 | 56 | 1 | 1.7 | 3.5 | 0.27 | 0.32 | 0.32 | 1005.6 | |
| 20260505173533 | 56 | 0 | 0.9 | 3.5 | 0.27 | 0.31 | 0.31 | 1005.8 | |
| 20260505172558 | 57 | 313 | 0.9 | 4.3 | 0.26 | 0.30 | 0.30 | 1006.0 | |
| 20260505171555 | 57 | 228 | 3.5 | 7.8 | 0.25 | 0.27 | 0.27 | 1006.1 | |
| 20260505170551 | 58 | 180 | 4.3 | 9.6 | 0.17 | 0.19 | 0.19 | 1006.0 | |
| 20260505165548 | 59 | 257 | 4.3 | 7.8 | 0.12 | 0.14 | 0.14 | 1005.7 | |
| 20260505164543 | 60 | 237 | 2.6 | 7.8 | 0.02 | 0.05 | 0.05 | 1005.6 | |
| 20260505163540 | 61 | 266 | 1.7 | 7.8 | 0.01 | 0.04 | 0.04 | 1005.3 | |
| 20260505162536 | 62 | 275 | 0.9 | 3.5 | 0.01 | 0.04 | 0.04 | 1004.9 | |
| 20260505161532 | 62 | 331 | 0.9 | 3.5 | 0.00 | 0.02 | 0.02 | 1004.9 | |
| 20260505160528 | 63 | 45 | 1.7 | 3.5 | 0.00 | 0.02 | 0.02 | 1005.0 | |
| 20260505152613 | 66 | 195 | 1.7 | 5.2 | 0.00 | 0.02 | 0.02 | 1005.4 | |
| 20260505151610 | 69 | 187 | 2.6 | 4.3 | 0.00 | 0.02 | 0.02 | 1005.1 | |
| 20260505150606 | 70 | 45 | 1.7 | 5.2 | 0.00 | 0.02 | 0.02 | 1004.8 | |
| 20260505140543 | 76 | 315 | 1.7 | 3.5 | 0.00 | 0.02 | 0.02 | 1005.2 | |
| 20260505124613 | 80 | 326 | 2.6 | 5.2 | 0.00 | 0.02 | 0.02 | 1005.9 | |
| 20260505123610 | 79 | 332 | 0.9 | 4.3 | 0.00 | 0.02 | 0.02 | 1006.1 | |
| 20260505122607 | 77 | 31 | 0.9 | 4.3 | 0.00 | 0.02 | 0.02 | 1006.4 | |
| 20260505121602 | 77 | 27 | 1.7 | 5.2 | 0.00 | 0.02 | 0.02 | 1006.4 | |
| 20260505120558 | 79 | 0.0 | 0.0 | 0.00 | 0.02 | 0.02 | 1006.5 | ||
| 20260505115555 | 78 | 0 | 0.9 | 3.5 | 0.00 | 0.02 | 0.02 | 1006.6 | |
| 20260505114551 | 77 | 315 | 0.0 | 3.5 | 0.00 | 0.02 | 0.02 | 1006.6 | |
| 20260505113547 | 78 | 320 | 0.9 | 3.5 | 0.00 | 0.02 | 0.02 | 1006.7 | |
| 20260505112544 | 78 | 325 | 0.9 | 3.5 | 0.00 | 0.02 | 0.02 | 1006.8 | |
| 20260505111540 | 78 | 0.0 | 3.5 | 0.00 | 0.02 | 0.02 | 1007.0 | ||
| 20260505110535 | 78 | 90 | 0.9 | 3.5 | 0.00 | 0.02 | 0.02 | 1007.1 |